Location: Unspecified
(21.8461°N, 0.0000°E)
Time: 16:32:42
(UTC+00:00)

Vanguard 1 Rocket - Visible Passes

Search period start: 04 April 2026 00:00
Search period end: 14 April 2026 00:00
Orbit: 654 x 4213 km, 34.3° (Epoch: 28 March)

Date Brightness Start Highest point End Pass type
(mag) Time Alt. Az. Time Alt. Az. Time Alt. Az.
4 Apr 9.9 01:20:32 46° NE 01:20:32 46° NE 01:27:14 10° ENE visible
4 Apr 9.5 03:37:39 26° WNW 03:44:39 42° N 03:52:16 10° ENE visible
4 Apr 11.4 18:44:29 10° SSE 18:54:27 13° SE 19:03:45 11° ESE visible
4 Apr 10.8 21:03:31 10° SSW 21:21:00 41° S 21:21:00 41° S visible
4 Apr 10.7 23:33:51 10° WSW 00:11:31 23° ENE 00:14:41 10° ENE visible
5 Apr 9.6 02:28:37 49° NW 02:30:19 51° NNW 02:40:08 10° ENE visible
5 Apr 9.1 04:48:26 10° WNW 04:59:24 42° N 05:05:29 10° ENE visible
5 Apr 10.9 19:50:41 10° SSW 20:11:06 31° SE 20:13:37 31° SE visible
5 Apr 10.9 22:17:22 10° SW 23:02:26 - ENE 22:30:54 40° SW visible
6 Apr 9.9 01:19:31 52° NNE 01:19:31 52° NNE 01:27:51 10° ENE visible
6 Apr 9.5 03:36:37 21° WNW 03:45:34 43° N 03:53:16 10° ENE visible
6 Apr 11.2 18:40:26 10° S 18:54:50 19° SE 19:06:27 13° ESE visible
6 Apr 10.5 21:02:28 10° SSW 21:23:45 52° SSE 21:23:45 52° SSE visible
6 Apr 10.5 23:33:47 10° WSW 00:10:21 31° ENE 00:15:14 10° ENE visible
7 Apr 9.8 02:27:26 43° NW 02:31:04 49° NNW 02:40:59 10° ENE visible
7 Apr 8.9 04:48:45 10° WNW 05:00:21 49° NNE 05:06:33 10° E visible
7 Apr 10.7 19:49:13 10° SSW 20:10:56 39° SE 20:16:51 35° ESE visible
7 Apr 10.6 22:16:56 10° SW 23:01:06 13° ENE 23:02:02 10° ENE visible
8 Apr 9.9 01:18:10 56° N 01:18:10 56° N 01:28:32 10° ENE visible
8 Apr 9.5 03:35:14 17° WNW 03:46:30 46° N 03:54:20 10° ENE visible
8 Apr 11.1 18:37:57 10° S 18:54:51 25° SE 19:10:13 13° E visible
8 Apr 10.3 21:01:43 10° SW 21:27:02 64° SE 21:27:34 64° SE visible
8 Apr 10.4 23:33:57 10° WSW 00:08:47 40° NE 00:15:47 10° ENE visible
9 Apr 9.8 02:25:50 37° NW 02:31:53 49° N 02:41:55 10° ENE visible
9 Apr 8.8 04:48:57 10° WNW 05:01:12 59° NNE 05:07:34 10° E visible
9 Apr 10.6 19:48:07 10° SSW 20:10:37 47° SE 20:21:19 34° E visible
9 Apr 10.4 22:16:45 10° WSW 22:59:12 21° ENE 23:02:31 10° ENE visible
10 Apr 10.0 00:53:18 10° W 01:16:28 56° NNW 01:29:18 10° ENE visible
10 Apr 9.4 03:33:15 12° WNW 03:47:26 50° N 03:55:24 10° E visible
10 Apr 11.0 18:36:15 10° S 18:54:38 31° SE 19:14:55 10° E visible
10 Apr 10.3 21:01:14 10° SW 21:26:46 73° SE 21:32:59 60° E visible
10 Apr 10.2 23:34:20 10° WSW 00:06:18 51° NE 00:16:22 10° ENE visible
11 Apr 9.8 02:23:17 29° WNW 02:32:46 50° N 02:42:54 10° ENE visible
11 Apr 8.5 04:49:06 10° WNW 05:01:57 73° NNE 05:08:29 10° ESE visible
11 Apr 10.6 19:47:19 10° SSW 20:10:11 55° SE 20:28:04 22° ENE visible
11 Apr 10.2 22:16:48 10° WSW 22:43:31 81° NNW 23:02:58 10° ENE visible
12 Apr 10.1 00:53:59 10° W 01:17:10 54° N 01:30:08 10° ENE visible
12 Apr 9.3 03:32:10 10° WNW 03:48:20 57° NNE 03:56:25 10° E visible
12 Apr 10.8 18:35:01 10° SSW 18:54:13 38° SE 19:16:18 10° ENE visible
12 Apr 10.3 21:00:59 10° SW 21:26:31 82° SSE 21:48:53 10° ENE visible
12 Apr 10.3 23:34:52 10° W 00:00:44 62° NNW 00:17:01 10° ENE visible
13 Apr 9.8 02:13:53 10° WNW 02:33:40 53° N 02:43:55 10° E visible
13 Apr 8.4 04:49:13 10° WNW 05:02:33 90° NNW 05:09:14 10° ESE visible
13 Apr 10.5 19:46:48 10° SW 20:09:45 64° SE 20:33:49 10° ENE visible
13 Apr 10.4 22:17:05 10° WSW 22:43:38 74° NNW 23:03:27 10° ENE visible
